Date,Installs,Update checks
2020-01-22,1,0
2020-01-23,5,1
2020-01-24,4,1
2020-01-25,4,1
2020-01-26,7,0
2020-01-27,6,2
2020-01-28,8,2
2020-01-29,8,3
2020-01-30,5,5
2020-01-31,3,5
2020-02-01,9,3
2020-02-02,4,3
2020-02-03,11,6
2020-02-04,5,6
2020-02-05,6,5
2020-02-06,7,3
2020-02-07,9,6
2020-02-08,8,4
2020-02-09,5,2
2020-02-10,9,5
2020-02-11,7,8
2020-02-12,14,6
2020-02-13,6,13
2020-02-14,8,11
2020-02-15,10,9
2020-02-16,13,11
2020-02-17,16,9
2020-02-18,15,11
2020-02-19,15,11
2020-02-20,7,11
2020-02-21,13,10
2020-02-22,9,10
2020-02-23,6,13
2020-02-24,7,11
2020-02-25,9,14
2020-02-26,9,16
2020-02-27,12,17
2020-02-28,10,14
2020-02-29,11,3
2020-03-01,3,16
2020-03-02,11,15
2020-03-03,34,23
2020-03-04,24,28
2020-03-05,20,23
2020-03-06,17,32
2020-03-07,13,24
2020-03-08,13,21
2020-03-09,11,43
2020-03-10,12,31
2020-03-11,1,37
2020-03-12,4,26
2020-03-13,5,41
2020-03-14,5,22
2020-03-15,5,19
2020-03-16,6,39
2020-03-17,1,32
2020-03-18,2,32
2020-03-19,12,36
2020-03-20,7,32
2020-03-21,3,25
2020-03-22,7,22
2020-03-23,11,30
2020-03-24,5,32
2020-03-25,11,29
2020-03-26,11,40
2020-03-27,8,37
2020-03-28,4,37
2020-03-29,5,25
2020-03-30,4,34
2020-03-31,7,31
2020-04-01,3,31
2020-04-02,5,32
2020-04-03,6,30
2020-04-04,5,20
2020-04-05,9,25
2020-04-06,4,26
2020-04-07,4,32
2020-04-08,6,35
2020-04-09,6,38
2020-04-10,3,35
2020-04-11,1,19
2020-04-12,4,20
2020-04-13,2,26
2020-04-14,5,31
2020-04-15,10,22
2020-04-16,7,29
2020-04-17,7,21
2020-04-18,4,15
2020-04-19,1,22
2020-04-20,5,31
2020-04-21,5,28
2020-04-22,8,34
2020-04-23,20,35
2020-04-24,11,23
2020-04-25,12,19
2020-04-26,7,31
2020-04-27,8,33
2020-04-28,5,26
2020-04-29,0,35
2020-04-30,4,28
2020-05-01,3,17
2020-05-02,4,25
2020-05-03,3,14
2020-05-04,0,21
2020-05-05,0,14
2020-05-06,3,28
2020-05-07,1,26
2020-05-08,7,29
2020-05-09,5,19
2020-05-10,7,17
2020-05-11,4,35
2020-05-12,1,21
2020-05-13,4,32
2020-05-14,3,23
2020-05-15,0,35
2020-05-16,2,22
2020-05-17,0,18
2020-05-18,1,28
2020-05-19,3,30
2020-05-20,1,25
2020-05-21,3,29
2020-05-22,3,23
2020-05-23,2,26
2020-05-24,0,30
2020-05-25,2,30
2020-05-26,3,25
2020-05-27,0,22
2020-05-28,1,26
2020-05-29,4,27
2020-05-30,4,19
2020-05-31,3,21
2020-06-01,1,29
2020-06-02,1,30
2020-06-03,2,31
2020-06-04,2,17
2020-06-05,0,26
2020-06-06,0,23
2020-06-07,0,10
2020-06-08,1,20
2020-06-09,1,26
2020-06-10,0,26
2020-06-11,2,22
2020-06-12,1,19
2020-06-13,1,16
2020-06-14,1,12
2020-06-15,2,25
2020-06-16,3,23
2020-06-17,3,26
2020-06-18,1,16
2020-06-19,5,20
2020-06-20,2,13
2020-06-21,1,15
2020-06-22,2,24
2020-06-23,2,19
2020-06-24,3,20
2020-06-25,3,21
2020-06-26,1,14
2020-06-27,2,13
2020-06-28,5,22
2020-06-29,5,18
2020-06-30,1,22
2020-07-01,2,16
2020-07-02,3,14
2020-07-03,2,14
2020-07-04,1,14
2020-07-05,2,11
2020-07-06,4,25
2020-07-07,2,16
2020-07-08,2,18
2020-07-09,1,17
2020-07-10,3,18
2020-07-11,0,18
2020-07-12,1,16
2020-07-13,0,18
2020-07-14,0,18
2020-07-15,2,21
2020-07-16,0,18
2020-07-17,3,21
2020-07-18,1,12
2020-07-19,1,12
2020-07-20,0,15
2020-07-21,1,20
2020-07-22,2,14
2020-07-23,3,20
2020-07-24,3,17
2020-07-25,1,15
2020-07-26,0,12
2020-07-27,2,15
2020-07-28,8,19
2020-07-29,2,19
2020-07-30,7,18
2020-07-31,1,20
2020-08-01,1,13
2020-08-02,3,12
2020-08-03,1,15
2020-08-04,1,15
2020-08-05,2,17
2020-08-06,1,14
2020-08-07,4,15
2020-08-08,3,15
2020-08-09,1,16
2020-08-10,1,22
2020-08-11,3,10
2020-08-12,1,16
2020-08-13,0,20
2020-08-14,0,21
2020-08-15,0,8
2020-08-16,0,9
2020-08-17,1,17
2020-08-18,0,18
2020-08-19,1,16
2020-08-20,3,13
2020-08-21,1,14
2020-08-22,0,17
2020-08-23,0,14
2020-08-24,5,19
2020-08-25,1,17
2020-08-26,1,13
2020-08-27,1,25
2020-08-28,3,14
2020-08-29,1,5
2020-08-30,1,10
2020-08-31,0,18
2020-09-01,3,21
2020-09-02,0,19
2020-09-03,1,23
2020-09-04,0,19
2020-09-05,0,21
2020-09-06,0,14
2020-09-07,0,21
2020-09-08,0,19
2020-09-09,1,18
2020-09-10,3,13
2020-09-11,4,23
2020-09-12,1,12
2020-09-13,4,15
2020-09-14,1,18
2020-09-15,2,14
2020-09-16,0,23
2020-09-17,0,20
2020-09-18,0,17
2020-09-19,1,11
2020-09-20,1,11
2020-09-21,2,17
2020-09-22,1,16
2020-09-23,4,16
2020-09-24,5,14
2020-09-25,1,18
2020-09-26,0,8
2020-09-27,0,14
2020-09-28,1,15
2020-09-29,2,12
2020-09-30,4,16
2020-10-01,2,14
2020-10-02,0,8
2020-10-03,0,11
2020-10-04,0,7
2020-10-05,0,10
2020-10-06,0,9
2020-10-07,0,15
2020-10-08,0,9
2020-10-09,1,15
2020-10-10,1,20
2020-10-11,0,10
2020-10-12,0,16
2020-10-13,3,11
2020-10-14,2,19
2020-10-15,1,16
2020-10-16,2,21
2020-10-17,1,13
2020-10-18,2,9
2020-10-19,2,13
2020-10-20,3,19
2020-10-21,2,15
2020-10-22,0,19
2020-10-23,0,12
2020-10-24,1,20
2020-10-25,0,14
2020-10-26,2,16
2020-10-27,2,17
2020-10-28,0,16
2020-10-29,0,19
2020-10-30,1,20
2020-10-31,1,14
2020-11-01,2,17
2020-11-02,2,21
2020-11-03,0,17
2020-11-04,3,14
2020-11-05,4,13
2020-11-06,0,12
2020-11-07,0,13
2020-11-08,2,18
2020-11-09,0,18
2020-11-10,1,14
2020-11-11,5,18
2020-11-12,0,13
2020-11-13,1,21
2020-11-14,1,12
2020-11-15,5,18
2020-11-16,0,13
2020-11-17,1,18
2020-11-18,0,16
2020-11-19,0,17
2020-11-20,1,18
2020-11-21,1,13
2020-11-22,0,16
2020-11-23,0,23
2020-11-24,3,18
2020-11-25,3,14
2020-11-26,4,20
2020-11-27,0,16
2020-11-28,2,12
2020-11-29,1,24
2020-11-30,1,12
2020-12-01,1,19
2020-12-02,3,21
2020-12-03,0,23
2020-12-04,1,14
2020-12-05,1,14
2020-12-06,1,17
2020-12-07,1,21
2020-12-08,0,22
2020-12-09,1,25
2020-12-10,1,19
2020-12-11,2,17
2020-12-12,0,16
2020-12-13,1,14
2020-12-14,3,23
2020-12-15,3,21
2020-12-16,2,27
2020-12-17,2,25
2020-12-18,3,15
2020-12-19,2,14
2020-12-20,2,16
2020-12-21,0,18
2020-12-22,3,18
2020-12-23,3,20
2020-12-24,5,21
2020-12-25,6,22
2020-12-26,8,18
2020-12-27,5,20
2020-12-28,4,26
2020-12-29,3,18
2020-12-30,2,27
2020-12-31,5,19
2021-01-01,2,13
2021-01-02,3,14
2021-01-03,1,21
2021-01-04,0,19
2021-01-05,1,16
2021-01-06,1,11
2021-01-07,1,18
2021-01-08,1,17
2021-01-09,4,12
2021-01-10,1,12
2021-01-11,1,15
2021-01-12,1,18
2021-01-13,0,18
2021-01-14,0,17
2021-01-15,0,16
2021-01-16,1,14
2021-01-17,1,15
2021-01-18,2,17
2021-01-19,4,22
2021-01-20,4,18
2021-01-21,11,21
2021-01-22,6,20
2021-01-23,2,18
2021-01-24,0,12
2021-01-25,6,25
2021-01-26,1,20
2021-01-27,2,30
2021-01-28,1,18
2021-01-29,3,27
2021-01-30,3,19
2021-01-31,3,12
2021-02-01,1,27
2021-02-02,2,24
2021-02-03,3,27
2021-02-04,0,21
2021-02-05,0,21
2021-02-06,0,11
2021-02-07,0,22
2021-02-08,2,18
2021-02-09,3,22
2021-02-10,0,21
2021-02-11,0,6
2021-02-12,0,12
2021-02-13,0,10
2021-02-14,0,13
2021-02-15,0,19
2021-02-16,1,16
2021-02-17,2,12
2021-02-18,0,20
2021-02-19,9,22
2021-02-20,1,25
2021-02-21,1,20
2021-02-22,0,23
2021-02-23,0,22
2021-02-24,2,30
2021-02-25,0,23
2021-02-26,0,20
2021-02-27,1,29
2021-02-28,0,19
2021-03-01,0,27
2021-03-02,0,27
2021-03-03,3,30
2021-03-04,1,33
2021-03-05,2,30
2021-03-06,3,27
2021-03-07,1,28
2021-03-08,3,28
2021-03-09,1,21
2021-03-10,2,34
2021-03-11,0,28
2021-03-12,1,22
2021-03-13,0,16
2021-03-14,2,19
2021-03-15,1,24
2021-03-16,0,19
2021-03-17,2,19
2021-03-18,0,26
2021-03-19,1,26
2021-03-20,5,26
2021-03-21,2,15
2021-03-22,1,33
2021-03-23,0,25
2021-03-24,1,22
2021-03-25,2,28
2021-03-26,2,21
2021-03-27,0,16
2021-03-28,0,14
2021-03-29,1,20
2021-03-30,0,27
2021-03-31,2,22
2021-04-01,0,13
2021-04-02,1,23
2021-04-03,3,14
2021-04-04,2,13
2021-04-05,0,19
2021-04-06,0,20
2021-04-07,3,24
2021-04-08,0,28
2021-04-09,0,29
2021-04-10,0,19
2021-04-11,1,10
2021-04-12,0,16
2021-04-13,2,20
2021-04-14,0,16
2021-04-15,1,19
2021-04-16,3,29
2021-04-17,1,19
2021-04-18,2,18
2021-04-19,0,31
2021-04-20,2,27
2021-04-21,2,25
2021-04-22,0,33
2021-04-23,0,22
2021-04-24,0,15
2021-04-25,0,29
2021-04-26,2,27
2021-04-27,1,28
2021-04-28,0,32
2021-04-29,1,30
2021-04-30,0,17
2021-05-01,0,17
2021-05-02,2,15
2021-05-03,0,17
2021-05-04,1,11
2021-05-05,3,17
2021-05-06,0,35
2021-05-07,0,20
2021-05-08,1,28
2021-05-09,1,21
2021-05-10,0,28
2021-05-11,3,18
2021-05-12,4,22
2021-05-13,4,26
2021-05-14,2,20
2021-05-15,1,26
2021-05-16,2,22
2021-05-17,3,23
2021-05-18,2,23
2021-05-19,0,27
2021-05-20,1,25
2021-05-21,1,18
2021-05-22,0,12
2021-05-23,1,13
2021-05-24,0,20
2021-05-25,2,20
2021-05-26,1,19
2021-05-27,1,20
2021-05-28,0,22
2021-05-29,0,21
2021-05-30,1,16
2021-05-31,2,26
2021-06-01,2,21
2021-06-02,3,22
2021-06-03,0,20
2021-06-04,1,24
2021-06-05,0,6
2021-06-06,0,22
2021-06-07,0,20
2021-06-08,0,19
2021-06-09,0,14
2021-06-10,0,24
2021-06-11,0,15
2021-06-12,0,18
2021-06-13,1,16
2021-06-14,1,18
2021-06-15,3,25
2021-06-16,2,20
2021-06-17,2,20
2021-06-18,1,18
2021-06-19,0,15
2021-06-20,0,12
2021-06-21,1,18
2021-06-22,0,25
2021-06-23,0,22
2021-06-24,1,19
2021-06-25,1,24
2021-06-26,0,20
2021-06-27,1,13
2021-06-28,0,20
2021-06-29,4,19
2021-06-30,1,20
2021-07-01,1,22
2021-07-02,4,15
2021-07-03,0,14
2021-07-04,0,16
2021-07-05,2,19
2021-07-06,1,22
2021-07-07,0,21
2021-07-08,0,18
2021-07-09,1,18
2021-07-10,0,14
2021-07-11,0,13
2021-07-12,0,17
2021-07-13,0,21
2021-07-14,0,23
2021-07-15,1,16
2021-07-16,0,23
2021-07-17,0,14
2021-07-18,0,1
2021-07-19,2,1
2021-07-20,0,18
2021-07-21,1,18
2021-07-22,0,17
2021-07-23,0,17
2021-07-24,1,15
2021-07-25,0,15
2021-07-26,0,20
2021-07-27,3,17
2021-07-28,1,20
2021-07-29,0,19
2021-07-30,2,13
2021-07-31,1,11
2021-08-01,1,13
2021-08-02,0,16
2021-08-03,0,19
2021-08-04,0,13
2021-08-05,0,16
2021-08-06,0,17
2021-08-07,0,20
2021-08-08,0,14
2021-08-09,0,18
2021-08-10,0,17
2021-08-11,0,15
2021-08-12,0,19
2021-08-13,0,15
2021-08-14,0,14
2021-08-15,0,11
2021-08-16,1,16
2021-08-17,0,15
2021-08-18,1,17
2021-08-19,2,13
2021-08-20,0,15
2021-08-21,0,9
2021-08-22,0,13
2021-08-23,0,16
2021-08-24,1,23
2021-08-25,1,15
2021-08-26,0,17
2021-08-27,0,14
2021-08-28,0,15
2021-08-29,1,8
2021-08-30,1,19
2021-08-31,0,17
2021-09-01,0,12
2021-09-02,0,16
2021-09-03,0,16
2021-09-04,0,15
2021-09-05,0,11
2021-09-06,0,14
2021-09-07,0,12
2021-09-08,2,17
2021-09-09,1,13
2021-09-10,1,17
2021-09-11,0,13
2021-09-12,0,8
2021-09-13,2,15
2021-09-14,3,15
2021-09-15,2,13
2021-09-16,0,9
2021-09-17,0,13
2021-09-18,0,16
2021-09-19,0,10
2021-09-20,1,9
2021-09-21,0,12
2021-09-22,0,20
2021-09-23,1,16
2021-09-24,1,13
2021-09-25,0,12
2021-09-26,1,16
2021-09-27,0,12
2021-09-28,1,15
2021-09-29,0,16
2021-09-30,1,11
2021-10-01,0,9
2021-10-02,1,7
2021-10-03,0,9
2021-10-04,3,7
2021-10-05,0,8
2021-10-06,1,14
2021-10-07,0,7
2021-10-08,0,19
2021-10-09,0,9
2021-10-10,0,14
2021-10-11,1,15
2021-10-12,0,17
2021-10-13,1,16
2021-10-14,0,17
2021-10-15,0,14
2021-10-16,0,13
2021-10-17,1,12
2021-10-18,0,17
2021-10-19,0,12
2021-10-20,1,16
2021-10-21,0,13
2021-10-22,0,16
2021-10-23,0,16
2021-10-24,0,16
2021-10-25,2,16
2021-10-26,0,15
2021-10-27,2,10
2021-10-28,0,19
2021-10-29,1,14
2021-10-30,1,10
2021-10-31,2,13
2021-11-01,0,14
2021-11-02,0,13
2021-11-03,3,15
2021-11-04,0,19
2021-11-05,2,15
2021-11-06,1,11
2021-11-07,1,13
2021-11-08,0,14
2021-11-09,1,22
2021-11-10,1,20
2021-11-11,0,16
2021-11-12,5,20
2021-11-13,1,11
2021-11-14,2,14
2021-11-15,1,15
2021-11-16,3,11
2021-11-17,0,11
2021-11-18,3,13
2021-11-19,2,17
2021-11-20,1,12
2021-11-21,9,12
2021-11-22,14,21
2021-11-23,4,21
2021-11-24,2,15
2021-11-25,2,16
2021-11-26,1,14
2021-11-27,0,12
2021-11-28,0,8
2021-11-29,0,20
2021-11-30,0,18
2021-12-01,2,16
2021-12-02,2,18
2021-12-03,1,16
2021-12-04,1,15
2021-12-05,0,14
2021-12-06,0,17
2021-12-07,0,14
2021-12-08,2,17
2021-12-09,1,14
2021-12-10,2,18
2021-12-11,1,10
2021-12-12,0,13
2021-12-13,3,19
2021-12-14,0,20
2021-12-15,0,21
2021-12-16,1,17
2021-12-17,1,15
2021-12-18,0,12
2021-12-19,1,11
2021-12-20,1,18
2021-12-21,1,17
2021-12-22,0,23
2021-12-23,1,21
2021-12-24,0,16
2021-12-25,0,11
2021-12-26,0,15
2021-12-27,0,13
2021-12-28,0,21
2021-12-29,0,13
2021-12-30,1,18
2021-12-31,0,11
2022-01-01,0,9
2022-01-02,1,8
2022-01-03,0,11
2022-01-04,1,15
2022-01-05,2,16
2022-01-06,0,14
2022-01-07,1,21
2022-01-08,0,8
2022-01-09,0,0
2022-01-10,1,0
2022-01-11,1,17
2022-01-12,0,15
2022-01-13,5,18
2022-01-14,0,17
2022-01-15,0,13
2022-01-16,0,10
2022-01-17,2,21
2022-01-18,2,15
2022-01-19,0,13
2022-01-20,0,14
2022-01-21,0,20
2022-01-22,1,10
2022-01-23,0,7
2022-01-24,2,19
2022-01-25,0,16
2022-01-26,1,14
2022-01-27,0,15
2022-01-28,0,9
2022-01-29,0,8
2022-01-30,0,10
2022-01-31,0,7
2022-02-01,0,6
2022-02-02,1,6
2022-02-03,0,9
2022-02-04,1,7
2022-02-05,0,7
2022-02-06,0,11
2022-02-07,0,12
2022-02-08,0,11
2022-02-09,3,12
2022-02-10,0,12
2022-02-11,0,18
2022-02-12,0,12
2022-02-13,0,8
2022-02-14,0,18
2022-02-15,0,17
2022-02-16,1,13
2022-02-17,0,12
2022-02-18,0,16
2022-02-19,0,14
2022-02-20,0,12
2022-02-21,0,22
2022-02-22,0,17
2022-02-23,0,17
2022-02-24,0,23
2022-02-25,1,13
2022-02-26,0,10
2022-02-27,2,14
2022-02-28,2,18
2022-03-01,1,21
2022-03-02,0,16
2022-03-03,0,14
2022-03-04,0,17
2022-03-05,0,7
2022-03-06,0,12
2022-03-07,2,18
2022-03-08,3,13
2022-03-09,0,20
2022-03-10,0,16
2022-03-11,0,13
2022-03-12,0,12
2022-03-13,0,13
2022-03-14,0,18
2022-03-15,0,19
2022-03-16,0,16
2022-03-17,0,19
2022-03-18,0,16
2022-03-19,0,15
2022-03-20,0,11
2022-03-21,0,15
2022-03-22,0,16
2022-03-23,0,18
2022-03-24,0,14
2022-03-25,0,14
2022-03-26,0,12
2022-03-27,0,10
2022-03-28,2,14
2022-03-29,3,16
2022-03-30,0,16
2022-03-31,1,16
2022-04-01,0,14
2022-04-02,0,13
2022-04-03,2,7
2022-04-04,4,15
2022-04-05,0,15
2022-04-06,0,18
2022-04-07,0,14
2022-04-08,1,15
2022-04-09,0,10
2022-04-10,0,10
2022-04-11,4,10
2022-04-12,0,14
2022-04-13,0,12
2022-04-14,0,14
2022-04-15,0,10
2022-04-16,0,6
2022-04-17,0,11
2022-04-18,0,16
2022-04-19,0,13
2022-04-20,0,16
2022-04-21,0,12
2022-04-22,0,16
2022-04-23,1,9
2022-04-24,1,13
2022-04-25,2,14
2022-04-26,1,16
2022-04-27,0,12
2022-04-28,1,12
2022-04-29,2,16
2022-04-30,0,12
2022-05-01,0,13
2022-05-02,1,8
2022-05-03,0,13
2022-05-04,0,9
2022-05-05,1,20
2022-05-06,0,13
2022-05-07,1,14
2022-05-08,2,11
2022-05-09,1,14
2022-05-10,0,12
2022-05-11,0,12
2022-05-12,5,16
2022-05-13,0,9
2022-05-14,1,9
2022-05-15,0,8
2022-05-16,1,17
2022-05-17,0,12
2022-05-18,0,11
2022-05-19,0,13
2022-05-20,0,11
2022-05-21,0,10
2022-05-22,0,11
2022-05-23,0,13
2022-05-24,0,15
2022-05-25,1,14
2022-05-26,0,16
2022-05-27,0,15
2022-05-28,0,11
2022-05-29,0,10
2022-05-30,0,17
2022-05-31,1,16
2022-06-01,3,12
2022-06-02,0,13
2022-06-03,0,8
2022-06-04,0,11
2022-06-05,0,8
2022-06-06,2,12
2022-06-07,0,14
2022-06-08,0,12
2022-06-09,0,15
2022-06-10,1,13
2022-06-11,0,9
2022-06-12,0,10
2022-06-13,0,9
2022-06-14,1,13
2022-06-15,0,12
2022-06-16,0,12
2022-06-17,0,13
2022-06-18,0,14
2022-06-19,1,5
2022-06-20,0,18
2022-06-21,0,12
2022-06-22,0,12
2022-06-23,0,12
2022-06-24,0,12
2022-06-25,0,9
2022-06-26,0,11
2022-06-27,0,12
2022-06-28,0,10
2022-06-29,0,11
2022-06-30,1,12
2022-07-01,0,6
2022-07-02,0,8
2022-07-03,0,7
2022-07-04,0,12
2022-07-05,0,16
2022-07-06,0,16
2022-07-07,0,13
2022-07-08,0,13
2022-07-09,0,9
2022-07-10,0,11
2022-07-11,2,8
2022-07-12,0,10
2022-07-13,0,11
2022-07-14,0,8
2022-07-15,0,9
2022-07-16,0,8
2022-07-17,0,9
2022-07-18,0,11
2022-07-19,0,7
2022-07-20,0,10
2022-07-21,0,8
2022-07-22,0,8
2022-07-23,1,7
2022-07-24,0,5
2022-07-25,1,7
2022-07-26,0,6
2022-07-27,0,6
2022-07-28,0,8
2022-07-29,0,8
2022-07-30,0,7
2022-07-31,1,4
2022-08-01,0,9
2022-08-02,0,12
2022-08-03,0,8
2022-08-04,1,8
2022-08-05,1,5
2022-08-06,0,8
2022-08-07,0,6
2022-08-08,1,13
2022-08-09,1,11
2022-08-10,0,4
2022-08-11,2,9
2022-08-12,1,4
2022-08-13,1,3
2022-08-14,1,3
2022-08-15,1,9
2022-08-16,0,11
2022-08-17,0,11
2022-08-18,0,8
2022-08-19,1,8
2022-08-20,2,6
2022-08-21,0,4
2022-08-22,0,8
2022-08-23,0,7
2022-08-24,2,9
2022-08-25,0,8
2022-08-26,0,6
2022-08-27,0,6
2022-08-28,0,8
2022-08-29,0,11
2022-08-30,1,9
2022-08-31,0,10
2022-09-01,0,7
2022-09-02,0,5
2022-09-03,0,5
2022-09-04,1,3
2022-09-05,2,11
2022-09-06,0,5
2022-09-07,0,9
2022-09-08,0,7
2022-09-09,0,9
2022-09-10,0,2
2022-09-11,0,4
2022-09-12,1,5
2022-09-13,0,6
2022-09-14,0,10
2022-09-15,0,5
2022-09-16,0,10
2022-09-17,1,4
2022-09-18,0,5
2022-09-19,0,10
2022-09-20,1,12
2022-09-21,1,9
2022-09-22,1,9
2022-09-23,0,9
2022-09-24,0,3
2022-09-25,0,8
2022-09-26,0,9
2022-09-27,0,9
2022-09-28,0,6
2022-09-29,0,9
2022-09-30,0,7
2022-10-01,0,3
2022-10-02,0,5
2022-10-03,0,5
2022-10-04,0,3
2022-10-05,0,6
2022-10-06,1,7
2022-10-07,1,9
2022-10-08,0,11
2022-10-09,0,7
2022-10-10,2,9
2022-10-11,0,5
2022-10-12,0,9
2022-10-13,0,7
2022-10-14,0,7
2022-10-15,0,5
2022-10-16,0,7
2022-10-17,2,10
2022-10-18,0,9
2022-10-19,1,6
2022-10-20,0,6
2022-10-21,0,4
2022-10-22,0,3
2022-10-23,0,5
2022-10-24,0,9
2022-10-25,0,9
2022-10-26,0,6
2022-10-27,0,8
2022-10-28,0,7
2022-10-29,0,3
2022-10-30,0,4
2022-10-31,0,8
2022-11-01,1,7
2022-11-02,0,8
2022-11-03,0,8
2022-11-04,1,3
2022-11-05,0,3
2022-11-06,1,4
2022-11-07,0,7
2022-11-08,0,4
2022-11-09,0,5
2022-11-10,0,9
2022-11-11,0,9
2022-11-12,0,4
2022-11-13,0,6
2022-11-14,0,7
2022-11-15,0,8
2022-11-16,0,7
2022-11-17,1,3
2022-11-18,0,5
2022-11-19,0,5
2022-11-20,0,5
2022-11-21,0,12
2022-11-22,0,8
2022-11-23,0,5
2022-11-24,1,9
2022-11-25,0,8
2022-11-26,0,4
2022-11-27,0,6
2022-11-28,0,7
2022-11-29,0,5
2022-11-30,1,7
2022-12-01,0,5
2022-12-02,0,8
2022-12-03,1,4
2022-12-04,0,4
2022-12-05,0,7
2022-12-06,2,8
2022-12-07,0,5
2022-12-08,0,9
2022-12-09,0,10
2022-12-10,0,5
2022-12-11,0,3
2022-12-12,0,7
2022-12-13,0,8
2022-12-14,0,8
2022-12-15,0,4
2022-12-16,1,5
2022-12-17,1,2
2022-12-18,0,3
2022-12-19,0,4
2022-12-20,1,6
2022-12-21,0,3
2022-12-22,0,3
2022-12-23,0,4
2022-12-24,1,5
2022-12-25,0,1
2022-12-26,0,8
2022-12-27,0,5
2022-12-28,0,6
2022-12-29,0,5
2022-12-30,0,3
2022-12-31,0,3
2023-01-01,0,3
2023-01-02,0,2
2023-01-03,0,9
2023-01-04,0,4
2023-01-05,0,6
2023-01-06,0,2
2023-01-07,0,7
2023-01-08,0,3
2023-01-09,1,5
2023-01-10,0,10
2023-01-11,0,8
2023-01-12,0,3
2023-01-13,0,5
2023-01-14,0,5
2023-01-15,0,3
2023-01-16,0,4
2023-01-17,0,4
2023-01-18,0,5
2023-01-19,0,3
2023-01-20,0,5
2023-01-21,0,2
2023-01-22,0,2
2023-01-23,0,3
2023-01-24,0,2
2023-01-25,0,1
2023-01-26,0,5
2023-01-27,0,3
2023-01-28,0,6
2023-01-29,0,10
2023-01-30,0,6
2023-01-31,0,8
2023-02-01,1,5
2023-02-02,0,7
2023-02-03,1,5
2023-02-04,0,3
2023-02-05,0,2
2023-02-06,0,9
2023-02-07,0,2
2023-02-08,0,10
2023-02-09,0,6
2023-02-10,0,6
2023-02-11,0,6
2023-02-12,2,4
2023-02-13,1,8
2023-02-14,0,6
2023-02-15,0,9
2023-02-16,0,8
2023-02-17,0,8
2023-02-18,0,4
2023-02-19,0,5
2023-02-20,0,8
2023-02-21,0,3
2023-02-22,1,7
2023-02-23,0,7
2023-02-24,0,8
2023-02-25,0,4
2023-02-26,0,4
2023-02-27,0,8
2023-02-28,0,6
2023-03-01,1,6
2023-03-02,0,5
2023-03-03,0,6
2023-03-04,0,6
2023-03-05,0,4
2023-03-06,0,6
2023-03-07,0,3
2023-03-08,0,6
2023-03-09,0,3
2023-03-10,0,10
2023-03-11,0,2
2023-03-12,1,4
2023-03-13,0,6
2023-03-14,2,6
2023-03-15,4,8
2023-03-16,0,7
2023-03-17,0,7
2023-03-18,0,4
2023-03-19,1,6
2023-03-20,0,7
2023-03-21,0,10
2023-03-22,0,10
2023-03-23,0,7
2023-03-24,0,7
2023-03-25,0,7
2023-03-26,0,6
2023-03-27,0,10
2023-03-28,1,6
2023-03-29,1,7
2023-03-30,1,8
2023-03-31,0,5
2023-04-01,0,6
2023-04-02,1,6
2023-04-03,0,6
2023-04-04,0,7
2023-04-05,0,5
2023-04-06,0,9
2023-04-07,0,8
2023-04-08,0,4
2023-04-09,0,4
2023-04-10,0,6
2023-04-11,0,5
2023-04-12,0,10
2023-04-13,0,11
2023-04-14,0,5
2023-04-15,0,4
2023-04-16,0,5
2023-04-17,2,7
2023-04-18,2,9
2023-04-19,0,9
2023-04-20,0,5
2023-04-21,0,8
2023-04-22,1,7
2023-04-23,0,4
2023-04-24,0,7
2023-04-25,0,5
2023-04-26,2,7
2023-04-27,0,5
2023-04-28,1,8
2023-04-29,0,3
2023-04-30,0,3
2023-05-01,0,6
2023-05-02,2,2
2023-05-03,0,4
2023-05-04,0,9
2023-05-05,0,5
2023-05-06,0,9
2023-05-07,0,5
2023-05-08,0,6
2023-05-09,0,8
2023-05-10,0,6
2023-05-11,0,7
2023-05-12,0,4
2023-05-13,0,3
2023-05-14,0,6
2023-05-15,0,3
2023-05-16,0,8
2023-05-17,0,5
2023-05-18,0,4
2023-05-19,0,8
2023-05-20,0,5
2023-05-21,0,4
2023-05-22,0,6
2023-05-23,0,6
2023-05-24,0,10
2023-05-25,0,7
2023-05-26,0,5
2023-05-27,0,3
2023-05-28,0,2
2023-05-29,1,6
2023-05-30,0,7
2023-05-31,0,9
2023-06-01,0,3
2023-06-02,1,6
2023-06-03,0,3
2023-06-04,0,4
2023-06-05,1,9
2023-06-06,0,6
2023-06-07,1,7
2023-06-08,0,4
2023-06-09,0,6
2023-06-10,0,4
2023-06-11,1,2
2023-06-12,0,8
2023-06-13,0,6
2023-06-14,0,8
2023-06-15,0,3
2023-06-16,0,5
2023-06-17,1,5
2023-06-18,0,3
2023-06-19,0,6
2023-06-20,0,5
2023-06-21,0,5
2023-06-22,0,3
2023-06-23,0,4
2023-06-24,1,1
2023-06-25,0,7
2023-06-26,0,6
2023-06-27,0,7
2023-06-28,0,6
2023-06-29,1,8
2023-06-30,0,6
2023-07-01,1,2
2023-07-02,0,3
2023-07-03,0,7
2023-07-04,0,4
2023-07-05,0,4
2023-07-06,0,5
2023-07-07,0,5
2023-07-08,0,2
2023-07-09,0,1
2023-07-10,0,5
2023-07-11,0,2
2023-07-12,0,8
2023-07-13,0,5
2023-07-14,0,3
2023-07-15,0,2
2023-07-16,0,4
2023-07-17,0,5
2023-07-18,0,5
2023-07-19,0,6
2023-07-20,0,6
2023-07-21,0,4
2023-07-22,0,4
2023-07-23,0,4
2023-07-24,0,5
2023-07-25,0,4
2023-07-26,0,7
2023-07-27,0,5
2023-07-28,0,5
2023-07-29,0,3
2023-07-30,0,5
2023-07-31,0,4
2023-08-01,0,2
2023-08-02,0,8
2023-08-03,0,5
2023-08-04,0,4
2023-08-05,0,3
2023-08-06,0,3
2023-08-07,0,5
2023-08-08,0,6
2023-08-09,0,7
2023-08-10,0,6
2023-08-11,0,4
2023-08-12,0,2
2023-08-13,0,4
2023-08-14,0,5
2023-08-15,0,8
2023-08-16,0,9
2023-08-17,0,6
2023-08-18,1,7
2023-08-19,0,4
2023-08-20,0,3
2023-08-21,0,4
2023-08-22,0,6
2023-08-23,0,3
2023-08-24,0,5
2023-08-25,1,3
2023-08-26,0,3
2023-08-27,0,2
2023-08-28,0,5
2023-08-29,1,3
2023-08-30,0,5
2023-08-31,0,3
2023-09-01,1,2
2023-09-02,0,3
2023-09-03,0,3
2023-09-04,1,7
2023-09-05,0,6
2023-09-06,0,4
2023-09-07,0,3
2023-09-08,0,4
2023-09-09,0,2
2023-09-10,0,3
2023-09-11,0,5
2023-09-12,0,7
2023-09-13,0,5
2023-09-14,0,4
2023-09-15,1,4
2023-09-16,0,2
2023-09-17,0,1
2023-09-18,0,9
2023-09-19,0,5
2023-09-20,0,7
2023-09-21,0,4
2023-09-22,0,3
2023-09-23,0,2
2023-09-24,0,2
2023-09-25,0,8
2023-09-26,0,4
2023-09-27,0,6
2023-09-28,0,3
2023-09-29,0,2
2023-09-30,0,4
2023-10-01,0,3
2023-10-02,0,4
2023-10-03,0,2
2023-10-04,0,4
2023-10-05,0,5
2023-10-06,0,2
2023-10-07,0,7
2023-10-08,0,9
2023-10-09,0,4
2023-10-10,1,6
2023-10-11,1,5
2023-10-12,0,5
2023-10-13,0,3
2023-10-14,1,3
2023-10-15,0,2
2023-10-16,0,2
2023-10-17,0,5
2023-10-18,0,3
2023-10-19,0,5
2023-10-20,0,3
2023-10-21,0,2
2023-10-22,0,1
2023-10-23,0,5
2023-10-24,0,2
2023-10-25,0,5
2023-10-26,0,2
2023-10-27,0,5
2023-10-28,0,2
2023-10-29,0,3
2023-10-30,0,2
2023-10-31,0,5
2023-11-01,0,4
2023-11-02,0,3
2023-11-03,0,6
2023-11-04,0,4
2023-11-05,0,4
2023-11-06,1,6
2023-11-07,0,3
2023-11-08,0,5
2023-11-09,0,4
2023-11-10,0,4
2023-11-11,0,2
2023-11-12,0,2
2023-11-13,0,4
2023-11-14,0,4
2023-11-15,0,6
2023-11-16,0,3
2023-11-17,0,1
2023-11-18,0,3
2023-11-19,0,3
2023-11-20,1,3
2023-11-21,0,3
2023-11-22,0,6
2023-11-23,0,3
2023-11-24,0,2
2023-11-25,0,4
2023-11-26,0,3
2023-11-27,0,4
2023-11-28,0,2
2023-11-29,0,2
2023-11-30,1,4
2023-12-01,0,4
2023-12-02,0,1
2023-12-03,1,2
2023-12-04,1,5
2023-12-05,0,3
2023-12-06,0,2
2023-12-07,0,1
2023-12-08,0,0
2023-12-09,0,0
2023-12-10,0,1
2023-12-11,0,3
2023-12-12,0,2
2023-12-13,0,2
2023-12-14,0,1
2023-12-15,0,0
2023-12-16,0,0
2023-12-17,0,0
2023-12-18,0,1
2023-12-19,0,3
2023-12-20,0,2
2023-12-21,0,1
2023-12-22,0,0
2023-12-23,0,0
2023-12-24,0,0
2023-12-25,1,5
2023-12-26,0,2
2023-12-27,0,3
2023-12-28,0,2
2023-12-29,0,3
2023-12-30,0,1
2023-12-31,0,0
2024-01-01,0,1
2024-01-02,0,2
2024-01-03,0,1
2024-01-04,0,1
2024-01-05,0,1
2024-01-06,0,2
2024-01-07,0,0
2024-01-08,0,1
2024-01-09,0,0
2024-01-10,0,1
2024-01-11,0,0
2024-01-12,0,2
2024-01-13,0,0
2024-01-14,0,0
2024-01-15,0,2
2024-01-16,0,2
2024-01-17,0,1
2024-01-18,0,2
2024-01-19,0,2
2024-01-20,1,1
2024-01-21,0,0
2024-01-22,0,2
2024-01-23,0,3
2024-01-24,0,2
2024-01-25,0,3
2024-01-26,0,2
2024-01-27,0,2
2024-01-28,0,1
2024-01-29,0,0
2024-01-30,0,2
2024-01-31,0,2
2024-02-01,0,1
2024-02-02,0,0
2024-02-03,0,0
2024-02-04,0,2
2024-02-05,0,2
2024-02-06,0,3
2024-02-07,0,4
2024-02-08,0,0
2024-02-09,0,1
2024-02-10,0,0
2024-02-11,0,1
2024-02-12,0,2
2024-02-13,0,1
2024-02-14,0,1
2024-02-15,0,0
2024-02-16,0,0
2024-02-17,1,0
2024-02-18,0,0
2024-02-19,0,0
2024-02-20,0,2
2024-02-21,0,1
2024-02-22,0,3
2024-02-23,0,2
2024-02-24,0,3
2024-02-25,0,1
2024-02-26,0,1
2024-02-27,1,4
2024-02-28,0,3
2024-02-29,0,1
2024-03-01,0,4
2024-03-02,0,0
2024-03-03,0,0
2024-03-04,0,5
2024-03-05,0,6
2024-03-06,0,6
2024-03-07,0,3
2024-03-08,0,3
2024-03-09,0,3
2024-03-10,0,2
2024-03-11,0,2
2024-03-12,0,5
2024-03-13,0,5
2024-03-14,0,4
2024-03-15,0,3
2024-03-16,0,1
2024-03-17,0,1
2024-03-18,1,1
2024-03-19,1,3
2024-03-20,0,4
2024-03-21,0,4
2024-03-22,0,1
2024-03-23,0,0
2024-03-24,0,1
2024-03-25,0,3
2024-03-26,0,4
2024-03-27,0,2
2024-03-28,0,3
2024-03-29,0,0
2024-03-30,0,0
2024-03-31,0,1
2024-04-01,0,3
2024-04-02,1,1
2024-04-03,0,7
2024-04-04,0,0
2024-04-05,0,0
2024-04-06,0,2
2024-04-07,0,4
2024-04-08,0,6